Location: *
(44.3925°N, 5.4708°E)
Time: 02:52:55
(UTC+00:00)

Cosmos 2219 Rocket - Pass Details

Date: 18 September 2019
Orbit: 829 x 845 km, 71.0° (Epoch: 19 October)

Event Time Altitude Azimuth Distance (km) Brightness Sun altitude
Rises 18:34:47 0° 335° (NNW) 3,381 5.9 -9.8°
Reaches altitude 10° 18:37:14 10° 337° (NNW) 2,444 5.1 -10.3°
Maximum altitude 18:42:51 77° 64° (ENE) 856 2.1 -11.2°
Drops below altitude 10° 18:48:26 10° 151° (SSE) 2,436 4.2 -12.2°
Enters shadow 18:49:38 - 152° (SSE) 2,892 4.6 -12.4°
